Time,TemperatureF,DewpointF,PressureIn,WindDirection,WindDirectionDegrees,WindSpeedMPH,WindSpeedGustMPH,Humidity,HourlyPrecipIn,Conditions,Clouds,dailyrainin,SolarRadiationWatts/m^2,SoftwareType,DateUTC
2013-06-18 00:01:00,80.6,80.1,30.07,West,270,0.0,0.0,98,0.00,,,0.00,957.0,meteobridge,2013-06-18 04:01:00,
2013-06-18 00:02:00,80.6,80.1,30.07,West,270,0.0,0.0,98,0.00,,,0.00,957.0,meteobridge,2013-06-18 04:02:00,
2013-06-18 00:07:00,80.6,80.2,30.08,West,270,0.0,0.0,99,0.00,,,0.00,957.0,meteobridge,2013-06-18 04:07:00,
2013-06-18 00:12:00,80.4,80.1,30.07,West,270,0.0,0.0,99,0.00,,,0.00,957.0,meteobridge,2013-06-18 04:12:00,
2013-06-18 00:17:00,80.2,79.9,30.08,SW,225,0.0,0.0,99,0.00,,,0.00,957.0,meteobridge,2013-06-18 04:17:00,
2013-06-18 00:22:00,80.2,79.9,30.08,SW,225,0.0,0.0,99,0.00,,,0.00,957.0,meteobridge,2013-06-18 04:22:00,
2013-06-18 00:27:00,80.1,79.7,30.08,SW,225,0.0,0.0,99,0.00,,,0.00,957.0,meteobridge,2013-06-18 04:27:00,
2013-06-18 00:33:00,80.1,79.7,30.08,SW,225,0.0,0.0,99,0.00,,,0.00,957.0,meteobridge,2013-06-18 04:33:00,
2013-06-18 00:38:00,80.1,79.7,30.08,South,180,0.0,0.0,99,0.00,,,0.00,921.0,meteobridge,2013-06-18 04:38:00,
2013-06-18 00:43:00,80.1,79.7,30.08,South,180,2.2,2.2,99,0.00,,,0.00,921.0,meteobridge,2013-06-18 04:43:00,
2013-06-18 00:48:00,80.1,79.7,30.08,South,180,0.0,0.7,99,0.00,,,0.00,921.0,meteobridge,2013-06-18 04:48:00,
2013-06-18 00:53:00,80.1,79.7,30.08,South,180,0.0,0.0,99,0.00,,,0.00,921.0,meteobridge,2013-06-18 04:53:00,
2013-06-18 00:58:00,80.1,79.7,30.08,South,180,0.0,0.0,99,0.00,,,0.00,921.0,meteobridge,2013-06-18 04:58:00,
2013-06-18 01:04:00,80.2,79.9,30.08,South,180,1.6,1.6,99,0.00,,,0.00,921.0,meteobridge,2013-06-18 05:04:00,
2013-06-18 01:09:00,80.4,80.1,30.08,South,180,0.7,1.6,99,0.00,,,0.00,921.0,meteobridge,2013-06-18 05:09:00,
2013-06-18 01:14:00,80.4,80.1,30.07,South,180,1.6,1.6,99,0.00,,,0.00,884.0,meteobridge,2013-06-18 05:14:00,
2013-06-18 01:19:00,80.4,80.1,30.07,East,90,2.2,2.2,99,0.00,,,0.00,884.0,meteobridge,2013-06-18 05:19:00,
2013-06-18 01:24:00,80.4,80.1,30.06,SW,225,0.7,1.6,99,0.00,,,0.00,884.0,meteobridge,2013-06-18 05:24:00,
2013-06-18 01:29:00,80.2,79.9,30.06,South,180,0.0,0.7,99,0.00,,,0.00,884.0,meteobridge,2013-06-18 05:29:00,
2013-06-18 01:35:00,80.1,79.7,30.06,South,180,0.0,0.0,99,0.00,,,0.00,884.0,meteobridge,2013-06-18 05:35:00,
2013-06-18 01:40:00,79.9,79.5,30.06,South,180,0.0,0.0,99,0.00,,,0.00,884.0,meteobridge,2013-06-18 05:40:00,
2013-06-18 01:45:00,79.9,79.5,30.06,South,180,0.0,0.0,99,0.00,,,0.00,884.0,meteobridge,2013-06-18 05:45:00,
2013-06-18 01:50:00,79.7,79.3,30.05,South,180,2.2,2.2,99,0.00,,,0.00,884.0,meteobridge,2013-06-18 05:50:00,
2013-06-18 01:55:00,79.5,79.2,30.05,SW,225,0.7,1.6,99,0.00,,,0.00,847.0,meteobridge,2013-06-18 05:55:00,
2013-06-18 02:00:00,79.5,79.2,30.05,SW,225,0.7,0.7,99,0.00,,,0.00,847.0,meteobridge,2013-06-18 06:00:00,
2013-06-18 02:06:00,79.5,79.2,30.05,SW,225,0.0,0.7,99,0.00,,,0.00,847.0,meteobridge,2013-06-18 06:06:00,
2013-06-18 02:11:00,79.5,79.2,30.05,SW,225,0.0,0.0,99,0.00,,,0.00,847.0,meteobridge,2013-06-18 06:11:00,
2013-06-18 02:16:00,79.3,79.0,30.05,SW,225,0.0,0.0,99,0.00,,,0.00,847.0,meteobridge,2013-06-18 06:16:00,
2013-06-18 02:21:00,79.3,79.0,30.05,SW,225,0.0,0.0,99,0.00,,,0.00,847.0,meteobridge,2013-06-18 06:21:00,
2013-06-18 02:26:00,79.3,79.0,30.05,SE,135,0.0,0.0,99,0.00,,,0.00,847.0,meteobridge,2013-06-18 06:26:00,
2013-06-18 02:31:00,79.5,79.2,30.06,South,180,0.7,1.6,99,0.00,,,0.00,847.0,meteobridge,2013-06-18 06:31:00,
2013-06-18 02:37:00,79.5,79.2,30.05,East,90,1.6,1.6,99,0.00,,,0.00,811.0,meteobridge,2013-06-18 06:37:00,
2013-06-18 02:42:00,79.5,79.2,30.06,East,90,3.1,3.1,99,0.00,,,0.00,811.0,meteobridge,2013-06-18 06:42:00,
2013-06-18 02:47:00,79.7,79.3,30.05,South,180,1.6,2.2,99,0.00,,,0.00,811.0,meteobridge,2013-06-18 06:47:00,
2013-06-18 02:52:00,79.7,79.3,30.06,East,90,3.1,3.1,99,0.00,,,0.00,811.0,meteobridge,2013-06-18 06:52:00,
2013-06-18 02:57:00,79.5,79.2,30.05,SE,135,1.6,1.6,99,0.00,,,0.00,811.0,meteobridge,2013-06-18 06:57:00,
2013-06-18 03:02:00,79.5,79.2,30.05,SE,135,1.6,2.2,99,0.00,,,0.00,811.0,meteobridge,2013-06-18 07:02:00,
2013-06-18 03:08:00,79.5,79.2,30.05,South,180,0.0,1.6,99,0.00,,,0.00,774.0,meteobridge,2013-06-18 07:08:00,
2013-06-18 03:13:00,79.3,79.0,30.04,South,180,0.0,0.0,99,0.00,,,0.00,774.0,meteobridge,2013-06-18 07:13:00,
2013-06-18 03:18:00,79.2,78.8,30.04,South,180,0.0,0.0,99,0.00,,,0.00,774.0,meteobridge,2013-06-18 07:18:00,
2013-06-18 03:23:00,79.2,78.8,30.04,SE,135,0.0,0.7,99,0.00,,,0.00,774.0,meteobridge,2013-06-18 07:23:00,
2013-06-18 03:28:00,79.0,78.6,30.04,South,180,0.0,0.0,99,0.00,,,0.00,774.0,meteobridge,2013-06-18 07:28:00,
2013-06-18 03:33:00,79.0,78.6,30.03,South,180,0.0,0.0,99,0.00,,,0.00,774.0,meteobridge,2013-06-18 07:33:00,
2013-06-18 03:39:00,79.0,78.6,30.03,South,180,0.0,0.0,99,0.00,,,0.00,774.0,meteobridge,2013-06-18 07:39:00,
2013-06-18 03:44:00,78.8,78.4,30.03,SW,225,0.0,0.0,99,0.00,,,0.00,774.0,meteobridge,2013-06-18 07:44:00,
2013-06-18 03:49:00,78.8,78.4,30.02,SW,225,0.0,0.0,99,0.00,,,0.00,774.0,meteobridge,2013-06-18 07:49:00,
2013-06-18 03:54:00,78.6,78.3,30.02,SW,225,0.0,0.0,99,0.00,,,0.00,738.0,meteobridge,2013-06-18 07:54:00,
2013-06-18 03:59:00,78.8,78.4,30.02,East,90,3.1,3.1,99,0.00,,,0.00,738.0,meteobridge,2013-06-18 07:59:00,
2013-06-18 04:04:00,78.8,78.4,30.03,SE,135,0.7,1.6,99,0.00,,,0.00,738.0,meteobridge,2013-06-18 08:04:00,
2013-06-18 04:10:00,78.6,78.3,30.03,East,90,3.1,3.1,99,0.00,,,0.00,738.0,meteobridge,2013-06-18 08:10:00,
2013-06-18 04:15:00,78.8,78.4,30.03,East,90,6.0,6.0,99,0.00,,,0.00,738.0,meteobridge,2013-06-18 08:15:00,
2013-06-18 04:20:00,78.6,78.3,30.03,South,180,2.2,4.5,99,0.00,,,0.00,738.0,meteobridge,2013-06-18 08:20:00,
2013-06-18 04:25:00,78.4,78.1,30.03,SE,135,3.1,3.1,99,0.00,,,0.00,701.0,meteobridge,2013-06-18 08:25:00,
2013-06-18 04:30:00,78.3,77.9,30.03,SSE,158,3.1,3.8,99,0.00,,,0.00,701.0,meteobridge,2013-06-18 08:30:00,
2013-06-18 04:35:00,78.1,77.7,30.03,SE,135,3.8,5.4,99,0.00,,,0.00,701.0,meteobridge,2013-06-18 08:35:00,
2013-06-18 04:41:00,77.9,77.5,30.03,SE,135,6.0,7.6,99,0.00,,,0.00,701.0,meteobridge,2013-06-18 08:41:00,
2013-06-18 04:46:00,77.7,77.4,30.03,SW,225,2.2,3.8,99,0.00,,,0.00,701.0,meteobridge,2013-06-18 08:46:00,
2013-06-18 04:51:00,77.5,77.2,30.03,SE,135,3.1,3.1,99,0.00,,,0.00,701.0,meteobridge,2013-06-18 08:51:00,
2013-06-18 04:56:00,77.4,77.0,30.03,SE,135,3.8,3.8,99,0.00,,,0.00,701.0,meteobridge,2013-06-18 08:56:00,
2013-06-18 05:01:00,77.2,76.8,30.03,ENE,68,3.1,3.8,99,0.00,,,0.00,701.0,meteobridge,2013-06-18 09:01:00,
2013-06-18 05:06:00,77.2,76.8,30.02,South,180,2.2,2.2,99,0.00,,,0.00,701.0,meteobridge,2013-06-18 09:06:00,
2013-06-18 05:12:00,77.0,76.6,30.02,South,180,1.6,2.2,99,0.00,,,0.00,701.0,meteobridge,2013-06-18 09:12:00,
2013-06-18 05:17:00,77.0,76.6,30.03,SSE,158,3.1,3.1,99,0.00,,,0.00,664.0,meteobridge,2013-06-18 09:17:00,
2013-06-18 05:22:00,76.8,76.5,30.03,East,90,1.6,1.6,99,0.00,,,0.00,664.0,meteobridge,2013-06-18 09:22:00,
2013-06-18 05:27:00,77.0,76.6,30.03,South,180,1.6,2.2,99,0.00,,,0.00,664.0,meteobridge,2013-06-18 09:27:00,
2013-06-18 05:32:00,77.0,76.6,30.03,NNW,338,0.7,2.2,99,0.00,,,0.00,664.0,meteobridge,2013-06-18 09:32:00,
2013-06-18 05:37:00,77.0,76.6,30.03,South,180,3.1,3.1,99,0.00,,,0.00,664.0,meteobridge,2013-06-18 09:37:00,
2013-06-18 05:43:00,77.0,76.6,30.03,East,90,1.6,1.6,99,0.00,,,0.00,664.0,meteobridge,2013-06-18 09:43:00,
2013-06-18 05:48:00,76.8,76.5,30.03,East,90,0.7,1.6,99,0.00,,,0.00,664.0,meteobridge,2013-06-18 09:48:00,
2013-06-18 05:53:00,76.8,76.5,30.03,SE,135,0.0,0.0,99,0.00,,,0.00,628.0,meteobridge,2013-06-18 09:53:00,
2013-06-18 05:58:00,76.8,76.5,30.03,West,270,0.0,0.0,99,0.00,,,0.00,628.0,meteobridge,2013-06-18 09:58:00,
2013-06-18 06:03:00,76.8,76.5,30.03,West,270,0.0,0.0,99,0.00,,,0.00,628.0,meteobridge,2013-06-18 10:03:00,
2013-06-18 06:09:00,76.5,76.1,30.03,West,270,0.0,0.0,99,0.00,,,0.00,628.0,meteobridge,2013-06-18 10:09:00,
2013-06-18 06:14:00,76.5,76.1,30.04,South,180,1.6,1.6,99,0.00,,,0.00,628.0,meteobridge,2013-06-18 10:14:00,
2013-06-18 06:19:00,76.3,75.9,30.04,SE,135,0.7,1.6,99,0.00,,,0.00,628.0,meteobridge,2013-06-18 10:19:00,
2013-06-18 06:24:00,76.3,75.9,30.03,SE,135,0.0,0.0,99,0.00,,,0.00,628.0,meteobridge,2013-06-18 10:24:00,
2013-06-18 06:29:00,76.5,76.1,30.04,South,180,0.7,1.6,99,0.00,,,0.00,628.0,meteobridge,2013-06-18 10:29:00,
2013-06-18 06:34:00,76.5,76.1,30.04,South,180,0.0,0.0,99,0.00,,,0.00,591.0,meteobridge,2013-06-18 10:34:00,
2013-06-18 06:40:00,76.3,75.9,30.04,South,180,1.6,1.6,99,0.00,,,0.00,591.0,meteobridge,2013-06-18 10:40:00,
2013-06-18 06:45:00,76.3,75.9,30.04,SE,135,1.6,1.6,99,0.00,,,0.00,591.0,meteobridge,2013-06-18 10:45:00,
2013-06-18 06:50:00,76.3,75.9,30.04,East,90,1.6,2.2,99,0.00,,,0.00,591.0,meteobridge,2013-06-18 10:50:00,
2013-06-18 06:55:00,76.3,75.9,30.04,South,180,1.6,2.2,99,0.00,,,0.00,591.0,meteobridge,2013-06-18 10:55:00,
2013-06-18 07:00:00,76.3,75.9,30.05,South,180,0.7,1.6,99,0.00,,,0.00,591.0,meteobridge,2013-06-18 11:00:00,
2013-06-18 07:05:00,76.5,76.1,30.05,SE,135,3.1,3.1,99,0.00,,,0.00,591.0,meteobridge,2013-06-18 11:05:00,
2013-06-18 07:11:00,76.6,76.3,30.05,SE,135,2.2,2.2,99,0.00,,,0.00,591.0,meteobridge,2013-06-18 11:11:00,
2013-06-18 07:16:00,76.8,76.5,30.05,East,90,3.1,3.1,99,0.00,,,0.00,591.0,meteobridge,2013-06-18 11:16:00,
2013-06-18 07:21:00,77.0,76.6,30.06,East,90,1.6,3.1,99,0.00,,,0.00,591.0,meteobridge,2013-06-18 11:21:00,
2013-06-18 07:26:00,77.2,76.8,30.06,East,90,3.1,3.1,99,0.00,,,0.00,591.0,meteobridge,2013-06-18 11:26:00,
2013-06-18 07:31:00,77.4,77.0,30.06,South,180,3.1,4.5,99,0.00,,,0.00,591.0,meteobridge,2013-06-18 11:31:00,
2013-06-18 07:36:00,77.4,77.0,30.06,South,180,1.6,1.6,99,0.00,,,0.00,591.0,meteobridge,2013-06-18 11:36:00,
2013-06-18 07:42:00,77.7,77.4,30.06,South,180,2.2,2.2,99,0.00,,,0.00,591.0,meteobridge,2013-06-18 11:42:00,
2013-06-18 07:47:00,78.1,77.7,30.06,South,180,2.2,2.2,99,0.00,,,0.00,591.0,meteobridge,2013-06-18 11:47:00,
2013-06-18 07:52:00,78.3,77.9,30.06,South,180,2.2,2.2,99,0.00,,,0.00,591.0,meteobridge,2013-06-18 11:52:00,
2013-06-18 07:57:00,78.6,78.3,30.06,East,90,5.4,5.4,99,0.00,,,0.00,591.0,meteobridge,2013-06-18 11:57:00,
2013-06-18 08:02:00,79.0,78.6,30.06,East,90,3.1,3.1,99,0.00,,,0.00,591.0,meteobridge,2013-06-18 12:02:00,
2013-06-18 08:07:00,79.5,79.2,30.06,South,180,1.6,1.6,99,0.00,,,0.00,628.0,meteobridge,2013-06-18 12:07:00,
2013-06-18 08:13:00,80.1,79.7,30.06,SE,135,2.2,2.2,99,0.00,,,0.00,664.0,meteobridge,2013-06-18 12:13:00,
2013-06-18 08:18:00,80.4,80.1,30.06,SE,135,2.2,2.2,99,0.00,,,0.00,664.0,meteobridge,2013-06-18 12:18:00,
2013-06-18 08:23:00,81.0,80.4,30.06,SW,225,1.6,3.1,98,0.00,,,0.00,664.0,meteobridge,2013-06-18 12:23:00,
2013-06-18 08:28:00,81.5,81.0,30.07,SE,135,2.2,2.2,98,0.00,,,0.00,664.0,meteobridge,2013-06-18 12:28:00,
2013-06-18 08:33:00,81.9,81.0,30.07,ESE,113,3.1,3.1,97,0.00,,,0.00,701.0,meteobridge,2013-06-18 12:33:00,
2013-06-18 08:38:00,82.4,81.1,30.07,SE,135,3.8,3.8,96,0.00,,,0.00,701.0,meteobridge,2013-06-18 12:38:00,
2013-06-18 08:44:00,82.6,80.6,30.07,South,180,3.8,3.8,94,0.00,,,0.00,701.0,meteobridge,2013-06-18 12:44:00,
2013-06-18 08:49:00,82.9,80.4,30.07,East,90,3.1,4.5,92,0.00,,,0.00,701.0,meteobridge,2013-06-18 12:49:00,
2013-06-18 08:54:00,83.1,80.6,30.08,East,90,3.8,3.8,92,0.00,,,0.00,701.0,meteobridge,2013-06-18 12:54:00,
2013-06-18 08:59:00,83.5,81.0,30.07,SE,135,2.2,2.2,92,0.00,,,0.00,701.0,meteobridge,2013-06-18 12:59:00,
2013-06-18 09:04:00,83.8,80.6,30.07,East,90,2.2,3.8,90,0.00,,,0.00,738.0,meteobridge,2013-06-18 13:04:00,
2013-06-18 09:09:00,84.2,80.6,30.07,SE,135,1.6,3.1,89,0.00,,,0.00,738.0,meteobridge,2013-06-18 13:09:00,
2013-06-18 09:15:00,84.6,79.9,30.07,SE,135,3.8,3.8,86,0.00,,,0.00,738.0,meteobridge,2013-06-18 13:15:00,
2013-06-18 09:20:00,84.7,79.7,30.07,SE,135,2.2,3.1,85,0.00,,,0.00,738.0,meteobridge,2013-06-18 13:20:00,
2013-06-18 09:25:00,84.7,79.7,30.08,SSW,203,3.1,3.1,85,0.00,,,0.00,774.0,meteobridge,2013-06-18 13:25:00,
2013-06-18 09:30:00,85.5,80.4,30.08,SE,135,1.6,3.1,85,0.00,,,0.00,774.0,meteobridge,2013-06-18 13:30:00,
2013-06-18 09:35:00,85.8,79.7,30.07,South,180,2.2,3.8,82,0.00,,,0.00,774.0,meteobridge,2013-06-18 13:35:00,
2013-06-18 09:40:00,86.5,80.4,30.08,South,180,2.2,2.2,82,0.00,,,0.00,774.0,meteobridge,2013-06-18 13:40:00,
2013-06-18 09:46:00,86.7,79.9,30.08,South,180,2.2,2.2,80,0.00,,,0.00,774.0,meteobridge,2013-06-18 13:46:00,
2013-06-18 09:51:00,86.4,79.5,30.07,ENE,68,3.8,4.5,80,0.00,,,0.00,774.0,meteobridge,2013-06-18 13:51:00,
2013-06-18 09:56:00,86.4,79.5,30.07,South,180,3.1,3.8,80,0.00,,,0.00,774.0,meteobridge,2013-06-18 13:56:00,
2013-06-18 10:01:00,86.7,79.0,30.07,South,180,3.1,3.1,78,0.00,,,0.00,774.0,meteobridge,2013-06-18 14:01:00,
2013-06-18 10:06:00,86.9,79.5,30.07,South,180,3.8,3.8,79,0.00,,,0.00,811.0,meteobridge,2013-06-18 14:06:00,
2013-06-18 10:11:00,86.7,79.0,30.07,SE,135,1.6,3.8,78,0.00,,,0.00,811.0,meteobridge,2013-06-18 14:11:00,
2013-06-18 10:17:00,86.9,80.4,30.08,SE,135,3.8,4.5,81,0.00,,,0.00,811.0,meteobridge,2013-06-18 14:17:00,
2013-06-18 10:22:00,86.7,80.2,30.08,South,180,1.6,2.2,81,0.00,,,0.00,811.0,meteobridge,2013-06-18 14:22:00,
2013-06-18 10:27:00,86.7,79.9,30.07,SSE,158,3.1,3.8,80,0.00,,,0.00,811.0,meteobridge,2013-06-18 14:27:00,
2013-06-18 10:32:00,87.3,80.2,30.07,East,90,3.1,3.8,80,0.00,,,0.00,811.0,meteobridge,2013-06-18 14:32:00,
2013-06-18 10:37:00,87.8,80.4,30.07,West,270,1.6,3.1,79,0.00,,,0.00,847.0,meteobridge,2013-06-18 14:37:00,
2013-06-18 10:42:00,88.5,80.1,30.07,South,180,3.1,3.8,76,0.00,,,0.00,847.0,meteobridge,2013-06-18 14:42:00,
2013-06-18 10:48:00,88.0,79.0,30.07,ESE,113,6.0,6.9,75,0.00,,,0.00,847.0,meteobridge,2013-06-18 14:48:00,
2013-06-18 10:53:00,87.6,79.5,30.07,ENE,68,2.2,2.2,77,0.00,,,0.00,884.0,meteobridge,2013-06-18 14:53:00,
2013-06-18 10:58:00,88.2,79.7,30.07,SW,225,3.8,3.8,76,0.00,,,0.00,884.0,meteobridge,2013-06-18 14:58:00,
2013-06-18 11:03:00,88.9,80.8,30.07,South,180,3.8,3.8,77,0.00,,,0.00,884.0,meteobridge,2013-06-18 15:03:00,
2013-06-18 11:08:00,90.1,80.2,30.07,SSW,203,3.1,3.1,73,0.00,,,0.00,884.0,meteobridge,2013-06-18 15:08:00,
2013-06-18 11:13:00,90.3,78.3,30.06,NE,45,0.7,1.6,68,0.00,,,0.00,884.0,meteobridge,2013-06-18 15:13:00,
2013-06-18 11:19:00,90.5,79.9,30.07,West,270,2.2,3.8,71,0.00,,,0.00,884.0,meteobridge,2013-06-18 15:19:00,
2013-06-18 11:24:00,89.8,78.3,30.07,SE,135,3.1,4.5,69,0.00,,,0.00,921.0,meteobridge,2013-06-18 15:24:00,
2013-06-18 11:29:00,90.3,79.7,30.07,SW,225,3.1,3.1,71,0.00,,,0.00,921.0,meteobridge,2013-06-18 15:29:00,
2013-06-18 11:34:00,91.2,78.3,30.06,West,270,5.4,6.0,66,0.00,,,0.00,921.0,meteobridge,2013-06-18 15:34:00,
2013-06-18 11:39:00,91.0,77.5,30.06,WSW,248,2.2,4.5,65,0.00,,,0.00,921.0,meteobridge,2013-06-18 15:39:00,
2013-06-18 11:45:00,91.4,78.4,30.06,SW,225,4.5,4.5,66,0.00,,,0.00,957.0,meteobridge,2013-06-18 15:45:00,
2013-06-18 11:50:00,90.5,77.5,30.06,East,90,3.1,3.1,66,0.00,,,0.00,957.0,meteobridge,2013-06-18 15:50:00,
2013-06-18 11:55:00,89.6,77.5,30.06,SW,225,2.2,3.8,68,0.00,,,0.00,957.0,meteobridge,2013-06-18 15:55:00,
2013-06-18 12:00:00,89.1,77.5,30.06,SW,225,1.6,2.2,69,0.00,,,0.00,957.0,meteobridge,2013-06-18 16:00:00,
2013-06-18 12:05:00,89.2,78.1,30.06,SE,135,3.1,3.8,70,0.00,,,0.00,994.0,meteobridge,2013-06-18 16:05:00,
2013-06-18 12:10:00,89.1,78.8,30.07,South,180,1.6,3.1,72,0.00,,,0.00,994.0,meteobridge,2013-06-18 16:10:00,
2013-06-18 12:16:00,90.3,79.2,30.07,SE,135,4.5,5.4,70,0.00,,,0.00,994.0,meteobridge,2013-06-18 16:16:00,
2013-06-18 12:21:00,90.9,78.8,30.06,East,90,4.5,4.5,68,0.00,,,0.00,994.0,meteobridge,2013-06-18 16:21:00,
2013-06-18 12:26:00,92.5,77.0,30.07,South,180,6.9,6.9,61,0.00,,,0.00,1031.0,meteobridge,2013-06-18 16:26:00,
2013-06-18 12:31:00,92.3,76.8,30.07,SSW,203,6.0,6.0,61,0.00,,,0.00,1031.0,meteobridge,2013-06-18 16:31:00,
2013-06-18 12:36:00,92.1,76.6,30.07,SE,135,3.8,5.4,61,0.00,,,0.00,1031.0,meteobridge,2013-06-18 16:36:00,
2013-06-18 12:41:00,91.0,76.6,30.06,NW,315,4.5,8.3,63,0.00,,,0.00,1031.0,meteobridge,2013-06-18 16:41:00,
2013-06-18 12:47:00,91.9,77.5,30.06,NW,315,3.1,3.1,63,0.00,,,0.00,1067.0,meteobridge,2013-06-18 16:47:00,
2013-06-18 12:52:00,92.3,76.8,30.06,South,180,5.4,6.0,61,0.00,,,0.00,1067.0,meteobridge,2013-06-18 16:52:00,
2013-06-18 12:57:00,92.7,78.3,30.06,SW,225,2.2,6.9,63,0.00,,,0.00,1067.0,meteobridge,2013-06-18 16:57:00,
2013-06-18 13:02:00,93.9,76.8,30.06,South,180,6.9,6.9,58,0.00,,,0.00,1067.0,meteobridge,2013-06-18 17:02:00,
2013-06-18 13:07:00,93.7,76.6,30.06,SSW,203,3.1,4.5,58,0.00,,,0.00,1104.0,meteobridge,2013-06-18 17:07:00,
2013-06-18 13:12:00,93.7,77.2,30.06,SSW,203,4.5,4.5,59,0.00,,,0.00,1104.0,meteobridge,2013-06-18 17:12:00,
2013-06-18 13:18:00,94.1,77.5,30.06,South,180,3.8,6.9,59,0.00,,,0.00,1140.0,meteobridge,2013-06-18 17:18:00,
2013-06-18 13:23:00,93.7,77.2,30.05,SSW,203,2.2,2.2,59,0.00,,,0.00,1140.0,meteobridge,2013-06-18 17:23:00,
2013-06-18 13:28:00,93.0,76.1,30.05,East,90,5.4,5.4,58,0.00,,,0.00,1140.0,meteobridge,2013-06-18 17:28:00,
2013-06-18 13:33:00,93.2,74.7,30.05,South,180,3.8,4.5,55,0.00,,,0.00,1177.0,meteobridge,2013-06-18 17:33:00,
2013-06-18 13:38:00,93.7,77.2,30.05,South,180,2.2,3.1,59,0.00,,,0.00,1177.0,meteobridge,2013-06-18 17:38:00,
2013-06-18 13:43:00,94.3,75.0,30.04,SW,225,5.4,6.9,54,0.00,,,0.00,1177.0,meteobridge,2013-06-18 17:43:00,
2013-06-18 13:49:00,95.5,75.0,30.04,NW,315,3.1,4.5,52,0.00,,,0.00,1177.0,meteobridge,2013-06-18 17:49:00,
2013-06-18 13:54:00,95.5,73.9,30.04,West,270,3.8,6.0,50,0.00,,,0.00,1214.0,meteobridge,2013-06-18 17:54:00,
2013-06-18 13:59:00,95.2,75.4,30.04,NW,315,3.8,9.8,53,0.00,,,0.00,1214.0,meteobridge,2013-06-18 17:59:00,
2013-06-18 14:04:00,95.4,75.6,30.04,SSW,203,9.2,9.2,53,0.00,,,0.00,1214.0,meteobridge,2013-06-18 18:04:00,
2013-06-18 14:09:00,95.0,74.7,30.04,ESE,113,4.5,9.2,52,0.00,,,0.00,1214.0,meteobridge,2013-06-18 18:09:00,
2013-06-18 14:14:00,95.2,74.1,30.04,SW,225,6.9,7.6,51,0.00,,,0.00,1177.0,meteobridge,2013-06-18 18:14:00,
2013-06-18 14:20:00,95.0,75.2,30.04,NW,315,4.5,6.0,53,0.00,,,0.00,1177.0,meteobridge,2013-06-18 18:20:00,
2013-06-18 14:25:00,94.8,73.9,30.04,West,270,3.8,6.0,51,0.00,,,0.00,1140.0,meteobridge,2013-06-18 18:25:00,
2013-06-18 14:30:00,94.6,74.3,30.03,West,270,5.4,6.0,52,0.00,,,0.00,1140.0,meteobridge,2013-06-18 18:30:00,
2013-06-18 14:35:00,94.6,75.4,30.03,SW,225,4.5,4.5,54,0.00,,,0.00,1104.0,meteobridge,2013-06-18 18:35:00,
2013-06-18 14:40:00,95.4,76.1,30.03,SW,225,4.5,9.2,54,0.00,,,0.00,1104.0,meteobridge,2013-06-18 18:40:00,
2013-06-18 14:45:00,95.2,75.4,30.03,SW,225,8.3,8.3,53,0.00,,,0.00,1067.0,meteobridge,2013-06-18 18:45:00,
2013-06-18 14:51:00,94.3,75.0,30.04,South,180,6.0,6.9,54,0.00,,,0.00,1067.0,meteobridge,2013-06-18 18:51:00,
2013-06-18 14:56:00,93.7,73.9,30.04,SW,225,7.6,7.6,53,0.00,,,0.00,1067.0,meteobridge,2013-06-18 18:56:00,
2013-06-18 15:01:00,93.0,73.9,30.04,SW,225,6.9,8.3,54,0.00,,,0.00,1067.0,meteobridge,2013-06-18 19:01:00,
2013-06-18 15:06:00,93.7,76.6,30.03,SW,225,4.5,5.4,58,0.00,,,0.00,1067.0,meteobridge,2013-06-18 19:06:00,
2013-06-18 15:11:00,94.5,74.7,30.03,NW,315,3.1,9.8,53,0.00,,,0.00,1067.0,meteobridge,2013-06-18 19:11:00,
2013-06-18 15:16:00,94.3,75.6,30.03,West,270,6.0,6.9,55,0.00,,,0.00,1104.0,meteobridge,2013-06-18 19:16:00,
2013-06-18 15:22:00,94.1,75.9,30.03,South,180,6.0,6.9,56,0.00,,,0.00,1104.0,meteobridge,2013-06-18 19:22:00,
2013-06-18 15:27:00,94.6,75.9,30.02,NW,315,4.5,4.5,55,0.00,,,0.00,1140.0,meteobridge,2013-06-18 19:27:00,
2013-06-18 15:32:00,94.3,77.2,30.02,West,270,3.8,3.8,58,0.00,,,0.00,1140.0,meteobridge,2013-06-18 19:32:00,
2013-06-18 15:37:00,92.8,75.4,30.02,SE,135,3.8,8.3,57,0.00,,,0.00,1177.0,meteobridge,2013-06-18 19:37:00,
2013-06-18 15:42:00,91.9,76.1,30.02,South,180,3.8,6.9,60,0.00,,,0.00,1177.0,meteobridge,2013-06-18 19:42:00,
2013-06-18 15:47:00,91.4,76.5,30.02,SW,225,3.1,6.9,62,0.00,,,0.00,1213.0,meteobridge,2013-06-18 19:47:00,
2013-06-18 15:53:00,92.1,76.3,30.01,NE,45,2.2,6.0,60,0.00,,,0.00,1213.0,meteobridge,2013-06-18 19:53:00,
2013-06-18 15:58:00,93.6,76.1,30.01,SW,225,5.4,6.9,57,0.00,,,0.00,1213.0,meteobridge,2013-06-18 19:58:00,
2013-06-18 16:03:00,94.6,76.5,30.01,East,90,2.2,3.8,56,0.00,,,0.00,1250.0,meteobridge,2013-06-18 20:03:00,
2013-06-18 16:08:00,95.0,76.3,30.01,South,180,3.8,3.8,55,0.00,,,0.00,1250.0,meteobridge,2013-06-18 20:08:00,
2013-06-18 16:13:00,94.8,76.1,30.01,South,180,4.5,4.5,55,0.00,,,0.00,1287.0,meteobridge,2013-06-18 20:13:00,
2013-06-18 16:18:00,95.0,77.9,30.01,South,180,4.5,6.0,58,0.00,,,0.00,1287.0,meteobridge,2013-06-18 20:18:00,
2013-06-18 16:24:00,95.2,77.0,30.00,South,180,5.4,13.6,56,0.00,,,0.00,1250.0,meteobridge,2013-06-18 20:24:00,
2013-06-18 16:29:00,95.2,77.5,30.00,NW,315,4.5,6.9,57,0.00,,,0.00,1250.0,meteobridge,2013-06-18 20:29:00,
2013-06-18 16:34:00,94.8,76.6,30.00,South,180,6.0,6.0,56,0.00,,,0.00,1213.0,meteobridge,2013-06-18 20:34:00,
2013-06-18 16:39:00,94.6,76.5,30.01,West,270,6.9,8.3,56,0.00,,,0.00,1213.0,meteobridge,2013-06-18 20:39:00,
2013-06-18 16:44:00,95.0,75.7,30.01,SW,225,4.5,9.2,54,0.00,,,0.00,1177.0,meteobridge,2013-06-18 20:44:00,
2013-06-18 16:49:00,94.5,75.2,30.01,SW,225,3.8,6.9,54,0.00,,,0.00,1177.0,meteobridge,2013-06-18 20:49:00,
2013-06-18 16:55:00,94.3,76.1,30.01,SW,225,5.4,5.4,56,0.00,,,0.00,1177.0,meteobridge,2013-06-18 20:55:00,
2013-06-18 17:00:00,93.9,75.7,30.01,NNW,338,5.4,6.0,56,0.00,,,0.00,1177.0,meteobridge,2013-06-18 21:00:00,
2013-06-18 17:05:00,93.6,75.6,30.00,West,270,6.0,7.6,56,0.00,,,0.00,1213.0,meteobridge,2013-06-18 21:05:00,
2013-06-18 17:10:00,93.0,75.6,30.00,SW,225,3.1,6.9,57,0.00,,,0.00,1213.0,meteobridge,2013-06-18 21:10:00,
2013-06-18 17:15:00,93.0,76.6,29.99,South,180,6.0,6.9,59,0.00,,,0.00,1250.0,meteobridge,2013-06-18 21:15:00,
2013-06-18 17:20:00,92.3,74.8,30.00,West,270,3.8,6.9,57,0.00,,,0.00,1250.0,meteobridge,2013-06-18 21:20:00,
2013-06-18 17:26:00,92.5,74.5,29.99,West,270,6.0,6.9,56,0.00,,,0.00,1250.0,meteobridge,2013-06-18 21:26:00,
2013-06-18 17:31:00,92.7,75.2,30.00,West,270,5.4,5.4,57,0.00,,,0.00,1250.0,meteobridge,2013-06-18 21:31:00,
2013-06-18 17:36:00,92.7,74.7,29.99,West,270,6.9,6.9,56,0.00,,,0.00,1287.0,meteobridge,2013-06-18 21:36:00,
2013-06-18 17:41:00,92.7,75.2,29.99,WNW,293,4.5,4.5,57,0.00,,,0.00,1287.0,meteobridge,2013-06-18 21:41:00,
2013-06-18 17:46:00,92.7,75.7,29.99,SW,225,3.1,4.5,58,0.00,,,0.00,1213.0,meteobridge,2013-06-18 21:46:00,
2013-06-18 17:51:00,92.3,73.8,29.99,SW,225,5.4,9.2,55,0.00,,,0.00,1213.0,meteobridge,2013-06-18 21:51:00,
2013-06-18 17:57:00,92.1,74.7,29.99,SW,225,3.8,6.0,57,0.00,,,0.00,1177.0,meteobridge,2013-06-18 21:57:00,
2013-06-18 18:02:00,92.5,75.0,29.99,SW,225,8.3,8.3,57,0.00,,,0.00,1177.0,meteobridge,2013-06-18 22:02:00,
2013-06-18 18:07:00,92.3,75.4,29.99,South,180,3.8,6.9,58,0.00,,,0.00,1140.0,meteobridge,2013-06-18 22:07:00,
2013-06-18 18:12:00,91.9,75.6,29.99,SW,225,6.0,6.9,59,0.00,,,0.00,1140.0,meteobridge,2013-06-18 22:12:00,
2013-06-18 18:17:00,91.9,75.6,29.99,West,270,6.0,6.9,59,0.00,,,0.00,1140.0,meteobridge,2013-06-18 22:17:00,
2013-06-18 18:23:00,91.9,77.0,29.99,West,270,3.1,7.6,62,0.00,,,0.00,1140.0,meteobridge,2013-06-18 22:23:00,
2013-06-18 18:28:00,91.2,77.4,29.99,ENE,68,3.1,4.5,64,0.00,,,0.00,1140.0,meteobridge,2013-06-18 22:28:00,
2013-06-18 18:33:00,91.0,77.2,29.99,South,180,4.5,6.0,64,0.00,,,0.00,1140.0,meteobridge,2013-06-18 22:33:00,
2013-06-18 18:38:00,90.7,77.4,29.99,SSW,203,3.8,3.8,65,0.00,,,0.00,1140.0,meteobridge,2013-06-18 22:38:00,
2013-06-18 18:43:00,90.5,78.1,29.98,WSW,248,4.5,4.5,67,0.00,,,0.00,1140.0,meteobridge,2013-06-18 22:43:00,
2013-06-18 18:48:00,90.1,77.2,29.98,SW,225,4.5,6.9,66,0.00,,,0.00,1140.0,meteobridge,2013-06-18 22:48:00,
2013-06-18 18:54:00,89.8,77.4,29.99,West,270,3.8,3.8,67,0.00,,,0.00,1140.0,meteobridge,2013-06-18 22:54:00,
2013-06-18 18:59:00,89.4,77.5,29.99,West,270,6.0,6.9,68,0.00,,,0.00,1140.0,meteobridge,2013-06-18 22:59:00,
2013-06-18 19:04:00,89.1,77.2,29.98,South,180,5.4,5.4,68,0.00,,,0.00,1177.0,meteobridge,2013-06-18 23:04:00,
2013-06-18 19:09:00,88.9,77.9,29.99,WNW,293,7.6,7.6,70,0.00,,,0.00,1177.0,meteobridge,2013-06-18 23:09:00,
2013-06-18 19:14:00,88.7,77.7,29.99,West,270,5.4,5.4,70,0.00,,,0.00,1177.0,meteobridge,2013-06-18 23:14:00,
2013-06-18 19:19:00,88.5,77.5,29.99,SW,225,6.0,7.6,70,0.00,,,0.00,1177.0,meteobridge,2013-06-18 23:19:00,
2013-06-18 19:25:00,88.2,77.2,29.99,South,180,3.8,5.4,70,0.00,,,0.00,1177.0,meteobridge,2013-06-18 23:25:00,
2013-06-18 19:30:00,87.8,76.8,29.99,SW,225,4.5,5.4,70,0.00,,,0.00,1177.0,meteobridge,2013-06-18 23:30:00,
2013-06-18 19:35:00,87.4,76.8,29.99,West,270,4.5,4.5,71,0.00,,,0.00,1177.0,meteobridge,2013-06-18 23:35:00,
2013-06-18 19:40:00,87.3,77.2,30.00,West,270,3.8,3.8,72,0.00,,,0.00,1177.0,meteobridge,2013-06-18 23:40:00,
2013-06-18 19:45:00,86.9,77.2,30.00,NW,315,4.5,5.4,73,0.00,,,0.00,1213.0,meteobridge,2013-06-18 23:45:00,
2013-06-18 19:50:00,86.7,77.0,30.01,NW,315,4.5,4.5,73,0.00,,,0.00,1213.0,meteobridge,2013-06-18 23:50:00,
2013-06-18 19:56:00,86.4,77.0,30.00,West,270,3.1,3.1,74,0.00,,,0.00,1213.0,meteobridge,2013-06-18 23:56:00,
2013-06-18 20:01:00,86.2,77.4,30.01,WNW,293,3.1,3.1,75,0.00,,,0.00,1213.0,meteobridge,2013-06-19 00:01:00,
2013-06-18 20:06:00,86.0,77.2,30.01,NW,315,4.5,4.5,75,0.00,,,0.00,1213.0,meteobridge,2013-06-19 00:06:00,
2013-06-18 20:11:00,85.8,77.4,30.01,WNW,293,3.1,3.1,76,0.00,,,0.00,1213.0,meteobridge,2013-06-19 00:11:00,
2013-06-18 20:16:00,85.5,77.4,30.01,SW,225,3.1,5.4,77,0.00,,,0.00,1213.0,meteobridge,2013-06-19 00:16:00,
2013-06-18 20:21:00,85.3,77.7,30.01,West,270,6.9,6.9,78,0.00,,,0.00,1213.0,meteobridge,2013-06-19 00:21:00,
2013-06-18 20:27:00,85.1,77.9,30.01,SW,225,3.1,3.8,79,0.00,,,0.00,1213.0,meteobridge,2013-06-19 00:27:00,
2013-06-18 20:32:00,84.7,77.9,30.01,West,270,3.8,4.5,80,0.00,,,0.00,1213.0,meteobridge,2013-06-19 00:32:00,
2013-06-18 20:37:00,84.6,78.1,30.01,West,270,3.1,3.8,81,0.00,,,0.00,1213.0,meteobridge,2013-06-19 00:37:00,
2013-06-18 20:42:00,84.4,78.3,30.01,WSW,248,3.1,3.1,82,0.00,,,0.00,1213.0,meteobridge,2013-06-19 00:42:00,
2013-06-18 20:47:00,84.2,78.1,30.01,West,270,3.1,5.4,82,0.00,,,0.00,1213.0,meteobridge,2013-06-19 00:47:00,
2013-06-18 20:52:00,84.0,78.3,30.01,West,270,2.2,3.1,83,0.00,,,0.00,1213.0,meteobridge,2013-06-19 00:52:00,
2013-06-18 20:58:00,84.0,78.6,30.01,South,180,1.6,3.8,84,0.00,,,0.00,1177.0,meteobridge,2013-06-19 00:58:00,
2013-06-18 21:03:00,83.8,78.4,30.01,West,270,3.1,3.1,84,0.00,,,0.00,1177.0,meteobridge,2013-06-19 01:03:00,
2013-06-18 21:08:00,83.5,78.1,30.01,SW,225,2.2,2.2,84,0.00,,,0.00,1177.0,meteobridge,2013-06-19 01:08:00,
2013-06-18 21:13:00,83.5,78.4,30.01,SW,225,0.7,1.6,85,0.00,,,0.00,1177.0,meteobridge,2013-06-19 01:13:00,
2013-06-18 21:18:00,83.3,78.3,30.01,SW,225,1.6,1.6,85,0.00,,,0.00,1177.0,meteobridge,2013-06-19 01:18:00,
2013-06-18 21:23:00,83.1,78.4,30.01,West,270,2.2,2.2,86,0.00,,,0.00,1177.0,meteobridge,2013-06-19 01:23:00,
2013-06-18 21:29:00,83.1,78.8,30.01,NW,315,1.6,1.6,87,0.00,,,0.00,1177.0,meteobridge,2013-06-19 01:29:00,
2013-06-18 21:34:00,82.9,78.6,30.02,South,180,0.7,0.7,87,0.00,,,0.00,1177.0,meteobridge,2013-06-19 01:34:00,
2013-06-18 21:39:00,82.8,78.8,30.02,South,180,0.0,0.0,88,0.00,,,0.00,1177.0,meteobridge,2013-06-19 01:39:00,
2013-06-18 21:44:00,82.6,78.6,30.02,NW,315,1.6,1.6,88,0.00,,,0.00,1177.0,meteobridge,2013-06-19 01:44:00,
2013-06-18 21:49:00,82.6,79.0,30.02,SW,225,0.0,2.2,89,0.00,,,0.00,1177.0,meteobridge,2013-06-19 01:49:00,
2013-06-18 21:54:00,82.4,79.2,30.03,SW,225,1.6,1.6,90,0.00,,,0.00,1140.0,meteobridge,2013-06-19 01:54:00,
2013-06-18 22:00:00,82.2,79.3,30.02,SW,225,0.7,1.6,91,0.00,,,0.00,1140.0,meteobridge,2013-06-19 02:00:00,
2013-06-18 22:05:00,82.0,79.2,30.02,West,270,1.6,1.6,91,0.00,,,0.00,1140.0,meteobridge,2013-06-19 02:05:00,
2013-06-18 22:10:00,82.0,79.5,30.02,SW,225,0.0,0.7,92,0.00,,,0.00,1140.0,meteobridge,2013-06-19 02:10:00,
2013-06-18 22:15:00,82.0,79.5,30.03,SW,225,0.7,0.7,92,0.00,,,0.00,1140.0,meteobridge,2013-06-19 02:15:00,
2013-06-18 22:20:00,81.9,79.7,30.03,SW,225,0.0,0.7,93,0.00,,,0.00,1140.0,meteobridge,2013-06-19 02:20:00,
2013-06-18 22:25:00,81.7,79.7,30.03,SW,225,0.0,0.0,94,0.00,,,0.00,1104.0,meteobridge,2013-06-19 02:25:00,
2013-06-18 22:31:00,81.7,79.7,30.03,SW,225,0.7,0.7,94,0.00,,,0.00,1104.0,meteobridge,2013-06-19 02:31:00,
2013-06-18 22:36:00,81.5,79.9,30.04,West,270,0.7,0.7,95,0.00,,,0.00,1104.0,meteobridge,2013-06-19 02:36:00,
2013-06-18 22:41:00,81.5,79.9,30.03,West,270,0.0,0.7,95,0.00,,,0.00,1104.0,meteobridge,2013-06-19 02:41:00,
2013-06-18 22:46:00,81.5,80.2,30.03,West,270,1.6,1.6,96,0.00,,,0.00,1104.0,meteobridge,2013-06-19 02:46:00,
2013-06-18 22:51:00,81.5,80.2,30.03,West,270,0.7,0.7,96,0.00,,,0.00,1104.0,meteobridge,2013-06-19 02:51:00,
2013-06-18 22:56:00,81.3,80.1,30.03,West,270,0.7,0.7,96,0.00,,,0.00,1030.0,meteobridge,2013-06-19 02:56:00,
2013-06-18 23:02:00,81.3,80.1,30.03,West,270,1.6,1.6,96,0.00,,,0.00,1030.0,meteobridge,2013-06-19 03:02:00,
2013-06-18 23:07:00,81.1,80.2,30.03,SW,225,0.0,0.0,97,0.00,,,0.00,957.0,meteobridge,2013-06-19 03:07:00,
2013-06-18 23:12:00,81.1,80.2,30.03,SW,225,0.0,0.0,97,0.00,,,0.00,957.0,meteobridge,2013-06-19 03:12:00,
2013-06-18 23:17:00,81.1,80.6,30.04,West,270,0.0,0.7,98,0.00,,,0.00,921.0,meteobridge,2013-06-19 03:17:00,
2013-06-18 23:22:00,81.0,80.4,30.04,West,270,0.0,0.0,98,0.00,,,0.00,921.0,meteobridge,2013-06-19 03:22:00,
2013-06-18 23:27:00,81.1,80.8,30.04,West,270,0.0,0.0,99,0.00,,,0.00,884.0,meteobridge,2013-06-19 03:27:00,
2013-06-18 23:33:00,81.1,80.8,30.04,West,270,0.0,0.0,99,0.00,,,0.00,884.0,meteobridge,2013-06-19 03:33:00,
2013-06-18 23:38:00,81.1,80.8,30.04,NW,315,0.0,0.0,99,0.00,,,0.00,884.0,meteobridge,2013-06-19 03:38:00,
2013-06-18 23:43:00,81.1,80.8,30.03,North,0,0.0,0.7,99,0.00,,,0.00,884.0,meteobridge,2013-06-19 03:43:00,
2013-06-18 23:48:00,81.1,80.8,30.03,North,0,0.0,0.0,99,0.00,,,0.00,884.0,meteobridge,2013-06-19 03:48:00,
2013-06-18 23:53:00,81.0,80.6,30.03,North,0,0.0,0.0,99,0.00,,,0.00,847.0,meteobridge,2013-06-19 03:53:00,
2013-06-18 23:59:00,80.8,80.4,30.03,SW,225,0.0,0.0,99,0.00,,,0.00,847.0,meteobridge,2013-06-19 03:59:00,